Home > Weather > Pullman > Past weeks

Flag for U.S.A. Weather for the Past 2 Weeks in Pullman, Washington, U.S.A.

Now
39 °F

Passing clouds.


Feels Like: 36 °F
Forecast: 35 / 50 °F
Wind: 5 mph from Southeast

Location: Pullman / Moscow Regional Airport

Current Time: Feb 7, 2016 at 7:30:38 PM

Latest Report: Feb 7, 2016 at 5:53 PM


Visibility: 10 mi

Pressure: 30.68 "Hg (28.09 "Hg at 715m altitude)

Humidity: 79%

Dew point: 33 °F

Location of PullmanLocation

Historic Weather in Pullman — Graph

°F

Pullman Temperature Yesterday

Maximum temperature yesterday: 45 °F (at 12:53 AM)
Minimum temperature yesterday: 32 °F (at 10:53 PM)
Average temperature yesterday: 38 °F

High & Low Weather Summary for the Past Weeks

 TemperatureHumidityPressure
High46 °F (Feb 5, 1:53 PM)96% (Feb 4, 6:53 AM)30.68 "Hg (Feb 4, 6:53 AM)
Low25 °F (Feb 2, 6:53 AM)56% (Feb 7, 1:53 PM)29.64 "Hg (Jan 29, 12:00 PM)
Average36 °F79%30.21 "Hg
* Reported Jan 23 5:53 PM — Feb 7 5:53 PM, Pullman, Weather by CustomWeather, © 2016

Note: Actual official high and low records may vary slightly from our data, if they occured in-between our weather recording intervals... More about our weather records

Advertising

Pullman Weather History for the Previous 24 Hours

 ConditionsComfort  
Time TempWeatherWind HumidityBarometerVisibility
5:53 PM
Sun, Feb 7
39 °FPassing clouds.5 mph79%30.68 "Hg10 mi
4:53 PM41 °FPassing clouds.3 mph76%30.68 "Hg10 mi
3:53 PM45 °FPassing clouds.6 mph63%30.66 "Hg10 mi
2:53 PM45 °FOvercast.7 mph63%30.66 "Hg10 mi
1:53 PM45 °FOvercast.7 mph56%30.65 "Hg10 mi
12:53 PM45 °FScattered clouds.6 mph60%30.65 "Hg10 mi
11:53 AM43 °FSunny.7 mph62%30.66 "Hg10 mi
10:53 AM41 °FSunny.8 mph65%30.68 "Hg10 mi
9:53 AM38 °FSunny.12 mph70%30.66 "Hg10 mi
8:53 AM36 °FSunny.6 mph75%30.66 "Hg10 mi
7:53 AM33 °FSunny.5 mph75%30.64 "Hg10 mi
6:53 AM31 °FClear.6 mph79%30.63 "Hg10 mi
5:53 AM33 °FClear.6 mph72%30.60 "Hg10 mi
4:53 AM31 °FClear.5 mph82%30.60 "Hg10 mi
3:53 AM31 °FClear.3 mph85%30.58 "Hg10 mi
2:53 AM32 °FClear.6 mph82%30.55 "Hg10 mi
1:53 AM33 °FClear.5 mph78%30.55 "Hg10 mi
12:53 AM32 °FClear.6 mph85%30.54 "Hg10 mi
11:53 PM
Sat, Feb 6
32 °FClear.No wind82%30.54 "Hg9 mi
10:53 PM32 °FClear.3 mph88%30.50 "Hg9 mi
9:53 PM33 °FClear.No wind85%30.49 "Hg9 mi
8:53 PM33 °FPassing clouds.3 mph88%30.50 "Hg10 mi
7:53 PM34 °FOvercast.No wind85%30.49 "Hg10 mi
Weather by CustomWeather, © 2016

See weather overviewHow to use our weather pages